Regional Weather Roundup
Issued by NWS

Home | Current Version | Previous Version | Graphics & Text | Print | Product List | Glossary On
Versions: 1 2 3 4 5 6 7 8 9 10 11 12 13 14 15 16 17 18 19 20 21 22 23 24 25 26 27 28 29 30 31 32 33 34 35 36 37 38 39 40 41 42 43 44 45 46 47 48 49 50
000
ASUS43 KMKX 220621
RWRWI

WISCONSIN REGIONAL WEATHER ROUNDUP
NATIONAL WEATHER SERVICE MILWAUKEE/SULLIVAN WI
100 AM CDT SUN APR 22 2018

NOTE: "FAIR" INDICATES FEW OR NO CLOUDS BELOW 12,000 FEET WITH NO
SIGNIFICANT WEATHER AND/OR OBSTRUCTIONS TO VISIBILITY.

WIZ001-002-006>008-014>016-023>028-220700-
NORTHWEST WISCONSIN

CITY           SKY/WX    TMP DP  RH WIND       PRES   REMARKS
SUPERIOR ARPT  FAIR      29  25  84 CALM      30.35S
6HR MIN TEMP:  29; 6HR MAX TEMP:  55;

ASHLAND        FAIR      32  21  64 SW3       30.36S
6HR MIN TEMP:  27; 6HR MAX TEMP:  40;

HAYWARD        FAIR      29  21  72 N3        30.35F
6HR MIN TEMP:  27; 6HR MAX TEMP:  56;

SIREN          FAIR      30  19  63 CALM      30.35S
6HR MIN TEMP:  29; 6HR MAX TEMP:  56;

CUMBERLAND     FAIR      30  21  69 CALM      30.35S
RICE LAKE      FAIR      31  27  88 CALM      30.36S
6HR MIN TEMP:  31; 6HR MAX TEMP:  53;

CHETEK         FAIR      31  24  76 CALM      30.36R
6HR MIN TEMP:  31; 6HR MAX TEMP:  50;

LADYSMITH      FAIR      32  26  78 CALM      30.36F
6HR MIN TEMP:  32; 6HR MAX TEMP:  55;

EAU CLAIRE     FAIR      36  29  75 SW3       30.35S
6HR MIN TEMP:  34; 6HR MAX TEMP:  57;

MENOMONIE      FAIR      37  31  79 CALM      30.36S
6HR MIN TEMP:  38; 6HR MAX TEMP:  58;

NEW RICHMOND   FAIR      33  28  83 CALM      30.35S
6HR MIN TEMP:  33; 6HR MAX TEMP:  55;

OSCEOLA        FAIR      32  26  77 E3        30.38R
6HR MIN TEMP:  32; 6HR MAX TEMP:  56;

$$

WIZ003>005-009-010-017-018-220700-
NORTH CENTRAL WISCONSIN

CITY           SKY/WX    TMP DP  RH WIND       PRES   REMARKS
MANITOWISH WTR FAIR      29  20  71 CALM      30.35S
6HR MIN TEMP:  27; 6HR MAX TEMP:  54;

ARBOR VITAE    FAIR      29  22  73 CALM      30.35R
6HR MIN TEMP:  29; 6HR MAX TEMP:  57;

WOODRUFF       FAIR      29  22  73 CALM      30.35R
6HR MIN TEMP:  29; 6HR MAX TEMP:  57;

RHINELANDER    FAIR      34  24  67 W3        30.35F
6HR MIN TEMP:  33; 6HR MAX TEMP:  54;

EAGLE RIVER    FAIR      28  18  64 CALM      30.35S
6HR MIN TEMP:  28; 6HR MAX TEMP:  53;

LAND O LAKES   FAIR      27  21  77 CALM      30.37S
6HR MIN TEMP:  27; 6HR MAX TEMP:  57;

PHILLIPS       FAIR      28  22  80 CALM      30.35S
6HR MIN TEMP:  28; 6HR MAX TEMP:  54;

TOMAHAWK       FAIR      28  23  82 CALM      30.37R
6HR MIN TEMP:  27; 6HR MAX TEMP:  51;

MEDFORD        FAIR      32  25  76 S3        30.34F
6HR MIN TEMP:  31; 6HR MAX TEMP:  51;

MERRILL          N/A     29  25  85 CALM      30.37S
6HR MIN TEMP:  28; 6HR MAX TEMP:  54;

$$

WIZ029-030-035-036-043>047-220700-
CENTRAL WISCONSIN

CITY           SKY/WX    TMP DP  RH WIND       PRES   REMARKS
WAUSAU         FAIR      33  26  75 CALM      30.34F
6HR MIN TEMP:  33; 6HR MAX TEMP:  54;

MOSINEE        FAIR      37  27  65 CALM      30.37S
MARSHFIELD     FAIR      39  27  62 CALM      30.35S
6HR MIN TEMP:  38; 6HR MAX TEMP:  52;

STEVENS POINT  FAIR      28  25  86 CALM      30.37S
6HR MIN TEMP:  28; 6HR MAX TEMP:  52;

WAUPACA        FAIR      33  28  83 CALM      30.37F
6HR MIN TEMP:  33; 6HR MAX TEMP:  55;

WAUTOMA        FAIR      30  27  88 MISG      30.38S
6HR MIN TEMP:  30; 6HR MAX TEMP:  56;

WISC RAPIDS    FAIR      34  24  67 CALM      30.37F
6HR MIN TEMP:  32; 6HR MAX TEMP:  56;

CAMP DOUGLAS   FAIR      31  29  92 CALM      30.35F
6HR MIN TEMP:  30; 6HR MAX TEMP:  53;

$$

WIZ011>013-019>022-031-037>040-048>050-220700-
NORTHEAST WISCONSIN

CITY           SKY/WX    TMP DP  RH WIND       PRES   REMARKS
ANTIGO         FAIR      31  28  85 CALM      30.36S
6HR MIN TEMP:  31; 6HR MAX TEMP:  49;

SHAWANO        FAIR      33  26  76 CALM      30.37S
OCONTO         FAIR      30  22  72 CALM      30.37S
6HR MIN TEMP:  30; 6HR MAX TEMP:  52;

STURGEON BAY   FAIR      41  21  44 SW3       30.38F
6HR MIN TEMP:  39; 6HR MAX TEMP:  49;

GREEN BAY      FAIR      36  27  69 CALM      30.37F
6HR MIN TEMP:  33; 6HR MAX TEMP:  51;

MANITOWOC      FAIR      34  26  72 CALM      30.39S
6HR MIN TEMP:  33; 6HR MAX TEMP:  45;

APPLETON       FAIR      37  27  65 CALM      30.36S
CLINTONVILLE   FAIR      32  26  78 CALM      30.36F
6HR MIN TEMP:  31; 6HR MAX TEMP:  52;

OSHKOSH        FAIR      37  31  78 S5        30.37S WCI  33
6HR MIN TEMP:  35; 6HR MAX TEMP:  51;

$$

WIZ032>034-041-042-053>061-220700-
SOUTHWEST WISCONSIN

CITY           SKY/WX    TMP DP  RH WIND       PRES   REMARKS
LA CROSSE      FAIR      42  32  67 CALM      30.35F
6HR MIN TEMP:  39; 6HR MAX TEMP:  56;

SPARTA         FAIR      30  27  87 CALM      30.37F
6HR MIN TEMP:  30; 6HR MAX TEMP:  55;

VIROQUA        CLOUDY    46  32  58 E5        30.35S
6HR MIN TEMP:  43; 6HR MAX TEMP:  52;

BOSCOBEL       FAIR      35  32  88 CALM      30.36F
6HR MIN TEMP:  34; 6HR MAX TEMP:  57;

PRAIRIE DU CHI FAIR      40  33  76 CALM      30.34F
6HR MIN TEMP:  40; 6HR MAX TEMP:  56;

PLATTEVILLE    CLOUDY    44  36  71 E8        30.34F
6HR MIN TEMP:  44; 6HR MAX TEMP:  53;

$$

WIZ056-057-062-063-064-067-068-220700-
SOUTH CENTRAL WISCONSIN

CITY           SKY/WX    TMP DP  RH WIND       PRES   REMARKS
REEDSBURG      FAIR      36  32  86 CALM      30.36S
6HR MIN TEMP:  37; 6HR MAX TEMP:  54;

BARABOO/DELLS  FAIR      37  29  75 CALM      30.36F
6HR MIN TEMP:  36; 6HR MAX TEMP:  51;

LONE ROCK      FAIR      35  33  92 CALM      30.37S
6HR MIN TEMP:  35; 6HR MAX TEMP:  54;

MINERAL POINT  FAIR      45  32  61 E6        30.35F
MADISON        FAIR      37  31  78 CALM      30.36F
6HR MIN TEMP:  35; 6HR MAX TEMP:  51;

MIDDLETON      FAIR      37  35  92 CALM      30.37S
6HR MIN TEMP:  35; 6HR MAX TEMP:  54;

WATERTOWN      FAIR      35  31  88 CALM      30.36F
6HR MIN TEMP:  33; 6HR MAX TEMP:  49;

MONROE         FAIR      43  30  61 E3        30.36F
JANESVILLE     FAIR      39  30  70 CALM      30.37S
$$

WIZ051-052-058>065-066-070>072-220700-
SOUTHEAST WISCONSIN

CITY           SKY/WX    TMP DP  RH WIND       PRES   REMARKS
MILWAUKEE      FAIR      41  23  48 CALM      30.38F
6HR MIN TEMP:  39; 6HR MAX TEMP:  46;

WAUKESHA       FAIR      34  27  75 CALM      30.38F
MILWAUKEE/TIMM FAIR      36  23  60 CALM      30.39S
RACINE         CLOUDY    37  28  70 CALM      30.39F
6HR MIN TEMP:  35; 6HR MAX TEMP:  45;

BURLINGTON     FAIR      34  25  70 CALM      30.37F
6HR MIN TEMP:  32; 6HR MAX TEMP:  51;

KENOSHA        FAIR      39  26  59 CALM      30.37F
6HR MIN TEMP:  37; 6HR MAX TEMP:  46;

FOND DU LAC    FAIR      32  28  85 S5        30.38S WCI  27
6HR MIN TEMP:  32; 6HR MAX TEMP:  52;

SHEBOYGAN      FAIR      32  28  85 CALM      30.38S
6HR MIN TEMP:  32; 6HR MAX TEMP:  51;

WEST BEND      FAIR      32  27  80 CALM      30.38S
JUNEAU         FAIR      39  31  70 CALM      30.39S
6HR MIN TEMP:  37; 6HR MAX TEMP:  48;

$$

LSZ147-162-220700-
LAKE SUPERIOR

STATION/POSITION TIME  TEMP    WIND        PRES    WAVE
                       AIR SEA DIR/SP/G            HT/PER
                 (UTC) (F)     (DEG/KT/KT) (MB)    (FT/S)
DEVILS ISLAND    0600           10/  5/  6 1028.7R
SAXON HARBOR     0530   29     190/  2/  3 1027.4S
$$

LMZ867-665-643>646-220700-
LAKE MICHIGAN

STATION/POSITION TIME  TEMP    WIND        PRES    WAVE
                       AIR SEA DIR/SP/G            HT/PER




USA.gov is the U.S. government's official web portal to all federal, state and local government web resources and services.